Location: Pacheco
(37.9835°N, 122.0752°W)
Time: 03:10:12
(UTC+00:00)

Cosmos 1674 - Visible Passes

Search period start: 25 July 2024 00:00
Search period end: 04 August 2024 00:00
Orbit: 430 x 448 km, 82.5° (Epoch: 24 July)

Date Brightness Start Highest point End Pass type
(mag) Time Alt. Az. Time Alt. Az. Time Alt. Az.
25 Jul 4.8 09:52:18 10° N 09:53:47 23° NNE 09:53:47 23° NNE visible
26 Jul 5.6 09:14:09 10° NNE 09:14:45 13° NE 09:14:45 13° NE visible
26 Jul 5.1 10:47:56 10° NW 10:48:09 11° NW 10:48:09 11° NW visible
27 Jul 5.0 10:08:15 10° NNW 10:09:05 16° NNW 10:09:05 16° NNW visible
28 Jul 5.4 09:29:13 10° N 09:29:58 15° N 09:29:58 15° N visible
30 Jul 5.5 09:44:52 10° NNW 09:45:03 11° NNW 09:45:03 11° NNW visible
31 Jul 5.8 09:05:40 10° N 09:05:51 11° N 09:05:51 11° N visible
